Simultaneous Nadir Overpasses (SNOs) Predictions

Prediction of SNOs over PacNW region [( 10.00, 139.50) to ( 22.70, 165.60)] between AQUA and NPP Satellites:

Table of predicted SNOs over PacNW region for the next 30.0 days since TLE Epoch: 11/2/2018
Index Date (AQUA) Time (AQUA) AQUA Lat,Lon Date (NPP) Time (NPP) NPP Lat,Lon Distance(km) Time Diff (sec)
1 11/03/2018 15:09:53 22.63, 159.83 11/03/2018 15:11:28 23.21, 157.21 276.58 95
2 11/06/2018 03:31:43 22.67, 147.51 11/06/2018 03:28:14 24.41, 145.30 297.74 209
3 11/11/2018 15:59:17 22.61, 147.48 11/11/2018 16:02:13 23.30, 144.52 312.46 176
4 11/19/2018 15:09:46 22.60, 159.85 11/19/2018 15:11:30 23.20, 157.16 283.38 104
5 11/22/2018 03:31:34 22.65, 147.55 11/22/2018 03:28:05 23.79, 145.42 252.12 209
6 11/27/2018 15:59:07 22.61, 147.51 11/27/2018 16:02:13 23.31, 144.49 319.57 186




NCC Satellite Simultaneous Nadir Overpasses (SNOs) Prediction Service
